Change the Weather History Date:

Monday, October 8, 2012

  Actual Average Record
Temperature  
Mean Temperature 48 °F 45 °F  
Max Temperature 53 °F 50 °F 56 °F (1945)
Min Temperature 43 °F 41 °F 24 °F (1958)
Degree Days  
Heating Degree Days 17 20  
Month to date heating degree days 157 152  
Since 1 July heating degree days 1235 1136  
Cooling Degree Days 0 0  
Month to date cooling degree days 0 0  
Year to date cooling degree days 1 2  
Moisture  
Dew Point 44 °F    
Average Humidity 89    
Maximum Humidity 100    
Minimum Humidity 77    
Precipitation  
Precipitation T in 0.29 in 1.59 in (1943)
Month to date precipitation 0.13 2.45  
Year to date precipitation 50.56 44.26  
Snow  
Snow 0.00 in 0.00 in 0.00 in (2002)
Month to date snowfall 0.0 0.0  
Since 1 July snowfall 0.0 0.0  
Since 1 September snowfall 0.0 0.0  
Snow Depth -    
Sea Level Pressure  
Sea Level Pressure 30.15 in    
Wind  
Wind Speed 3 mph (WSW)    
Max Wind Speed 10 mph    
Max Gust Speed 15 mph    
Visibility 10 miles    
Events Rain    
T = Trace of Precipitation, MM = Missing Value Source: NWS Daily Summary

Daily Weather History Graph

Daily Weather History Graph

Search for Another Location

Airport or City:

Trip Planner

Search our weather history database for the weather conditions in past years. The results will help you decide how hot, cold, wet, or windy it might be!

Date:

Astronomy

Oct. 08, 2012 Rise Set
Actual Time 7:19 AM AKDT 6:10 PM AKDT
Civil Twilight 6:40 AM AKDT 6:49 PM AKDT
Nautical Twilight 5:54 AM AKDT 7:35 PM AKDT
Astronomical Twilight 5:07 AM AKDT 8:22 PM AKDT
Moon 11:49 PM AKDT (10/8) 3:24 PM AKDT (10/8)
Length of Visible Light 12h 09m
Length of Day
10h 50m
Last Quarter, 45% of the Moon is Illuminated
Oct 8
Last Quarter
Oct 15
New
Oct 21
First Quarter
Oct 29
Full
Nov 6
Last Quarter

Hourly Weather History & Observations

Time (AKDT) Temp. Windchill Dew Point Humidity Pressure Visibility Wind Dir Wind Speed Gust Speed Precip Events Conditions
12:53 AM 46.0 °F - 44.1 °F 93% 30.21 in 10.0 mi Calm Calm - N/A   Overcast
1:29 AM 46.4 °F 44.3 °F 42.8 °F 87% 30.21 in 10.0 mi SW 4.6 mph - N/A   Overcast
1:53 AM 46.0 °F - 43.0 °F 89% 30.21 in 10.0 mi Calm Calm - N/A   Overcast
2:53 AM 46.0 °F - 44.1 °F 93% 30.20 in 10.0 mi Calm Calm - 0.00 in   Light Drizzle
3:53 AM 45.0 °F - 44.1 °F 97% 30.20 in 8.0 mi Calm Calm - 0.00 in   Light Drizzle
4:53 AM 45.0 °F - 44.1 °F 97% 30.19 in 8.0 mi Calm Calm - 0.00 in   Light Drizzle
5:53 AM 45.0 °F - 44.1 °F 97% 30.18 in 8.0 mi Calm Calm - 0.00 in   Light Drizzle
6:11 AM 44.6 °F - 42.8 °F 93% 30.18 in 10.0 mi Calm Calm - 0.00 in   Overcast
6:53 AM 44.1 °F - 43.0 °F 96% 30.19 in 8.0 mi Calm Calm - 0.00 in   Overcast
7:40 AM 44.6 °F - 42.8 °F 93% 30.19 in 10.0 mi Calm Calm - N/A   Mostly Cloudy
7:53 AM 43.0 °F - 42.1 °F 97% 30.19 in 10.0 mi Calm Calm - N/A   Mostly Cloudy
8:53 AM 44.1 °F - 44.1 °F 100% 30.19 in 10.0 mi Calm Calm - N/A   Mostly Cloudy
9:29 AM 48.2 °F - 44.6 °F 87% 30.18 in 10.0 mi North 3.5 mph - N/A   Mostly Cloudy
9:51 AM 46.4 °F - 44.6 °F 93% 30.18 in 10.0 mi Calm Calm - N/A   Mostly Cloudy
9:53 AM 46.9 °F - 43.0 °F 86% 30.18 in 10.0 mi Calm Calm - N/A   Mostly Cloudy
10:53 AM 48.9 °F - 45.0 °F 86% 30.17 in 10.0 mi WSW 10.4 mph - N/A   Mostly Cloudy
11:13 AM 48.2 °F - 44.6 °F 87% 30.17 in 10.0 mi SW 9.2 mph - N/A   Mostly Cloudy
11:53 AM 48.9 °F - 44.1 °F 83% 30.16 in 10.0 mi WSW 8.1 mph - N/A   Mostly Cloudy
12:53 PM 51.1 °F - 44.1 °F 77% 30.14 in 10.0 mi WSW 8.1 mph - N/A   Mostly Cloudy
1:53 PM 50.0 °F - 44.1 °F 80% 30.14 in 10.0 mi WSW 8.1 mph - N/A   Overcast
2:53 PM 51.1 °F - 44.1 °F 77% 30.12 in 10.0 mi SW 8.1 mph - N/A   Mostly Cloudy
3:53 PM 51.1 °F - 44.1 °F 77% 30.12 in 10.0 mi West 4.6 mph - N/A   Mostly Cloudy
4:53 PM 50.0 °F - 44.1 °F 80% 30.11 in 10.0 mi WSW 4.6 mph - N/A   Mostly Cloudy
5:37 PM 50.0 °F - 44.6 °F 82% 30.10 in 10.0 mi ENE 3.5 mph - N/A   Mostly Cloudy
5:53 PM 50.0 °F - 44.1 °F 80% 30.10 in 10.0 mi Calm Calm - N/A   Overcast
6:53 PM 48.0 °F - 45.0 °F 89% 30.10 in 10.0 mi SSW 3.5 mph - N/A   Overcast
7:53 PM 48.0 °F - 44.1 °F 86% 30.10 in 10.0 mi Calm Calm - N/A   Overcast
8:53 PM 48.0 °F - 44.1 °F 86% 30.09 in 10.0 mi Calm Calm - N/A   Overcast
9:53 PM 46.9 °F - 44.1 °F 90% 30.10 in 10.0 mi WNW 3.5 mph - N/A   Overcast
10:53 PM 46.9 °F - 44.1 °F 90% 30.10 in 10.0 mi Calm Calm - N/A   Overcast
11:53 PM 46.4 °F 45.2 °F 42.8 °F 87% 30.08 in 10.0 mi West 3.5 mph - N/A   Overcast